Retour au catalogue

YAOGAN-32 2B

ActifMilitaireSSO
NORAD 49384·PAYLOAD·🇨🇳 China

Lancé Nov 3, 2021 depuis Jiuquan Satellite Launch Center

Loading…

Prochains Passages (prochaines 24 heures)

TLE

FraisSource: Space-Track

Époque: Sep 14, 2026, 14:52 UTC

1 49384U 21099B   26257.61982500  .00000522  00000-0  10818-3 0  9992
2 49384  98.2591  31.6143 0001013  71.4831 288.6481 14.64313175259458

Suivez YAOGAN-32 2B en temps réel avec AllMySat

Download on the App Store